Location: St. Louis
(38.6270°N, 90.1994°W)
Time: 12:37:53
(UTC-05:00)

Orbcomm OXP-1 - Pass Details

Date: 03 July 2022
Orbit: 712 x 771 km, 25.0° (Epoch: 12 August)

Event Time Altitude Azimuth Distance (km) Brightness Sun altitude
Rises 21:37:56 0° 247° (WSW) 3,154 10.5 -11.7°
Reaches altitude 10° 21:41:51 10° 218° (SW) 2,245 9.4 -12.2°
Maximum altitude 21:44:01 12° 194° (SSW) 2,085 9.0 -12.5°
Enters shadow 21:45:57 11° 173° (S) 2,223 8.9 -12.8°
